Location: *
(2.5500°S, 65.9667°W)
Time: 06:51:24
(UTC+00:00)

Tiros 1 despin weight - Pass Details

Date: 18 April 2024
Orbit: 578 x 621 km, 48.2° (Epoch: 27 May)

Event Time Altitude Azimuth Distance (km) Brightness Sun altitude
Rises 15:49:23 0° 259° (WSW) 2,789 ? 73.9°
Reaches altitude 10° 15:53:49 10° 301° (WNW) 1,895 ? 74.5°
Maximum altitude 15:54:28 10° 310° (NW) 1,877 ? 74.6°
Drops below altitude 10° 15:55:08 10° 319° (NW) 1,896 ? 74.6°
Sets 15:59:36 0° 1° (N) 2,805 ? 75.1°
